KUIPER-00420

导读

KUIPER-00420(NORAD编号68932)是亚马逊柯伊伯(Kuiper)卫星互联网项目的一颗低轨宽带卫星,属于Kuiper大规模星座部署计划的组成部分。该项目计划发射数千颗卫星,旨在构建覆盖全球的高速低延迟卫星宽带网络,弥补地面网络覆盖不足,提供普惠性互联网接入服务。依托近地轨道(LEO)运行,该卫星承担网络通信节点功能,助力Kuiper与SpaceX星链等系统竞争全球卫星互联网市场,目前处于在轨运行状态,服务于全球宽带网络部署。

基本信息
目录编号:
68932
目录名称:
KUIPER-00420
国际标识:
2026-098P
轨道中心:
EARTH
卫星名称:
KUIPER-00420
卫星全名:
KUIPER-00420
卫星状态:
在轨 (已飞行128 天)
发射日期:
2026-04-30 UTC
国别 :
美国 (US)
星等 :
--
轨道信息
数据来源 国际轨道数据 AOE轨道数据
星历时间 2026-09-05T12:09:06+0800
5小时前
查看轨道信息
2026-09-04T02:00:00+0800
1天前
查看轨道信息
半长轴 7007.669km 7007.658km
偏心率 0.0000777 0.0001141
轨道倾角 51.900° 51.898°
近地点辐角 105.315° 341.405°
升交点赤经 51.933° 58.222°
平近点角 254.790° 352.761°
近地点 628.987km 628.721km
远地点 630.077km 630.321km
周期 97.302分钟 97.301分钟
每日圈数 14.799342 14.799379
详细信息
使用方式:
暂无
2D轨道图
3D轨道图
轨道高度分析图
轨道倾角分析图
轨道综合分析图
查看轨道综合分析图